#timestamp,LO_Frequency,Hit,StdDev 
1575889215.2,286047001.7,N
1575889235.0,286047003.5,N
1575889235.9,286047003.5,N
1575889255.8,286047001.7,N
1575889275.6,286046998.5,N
1575889295.4,286046998.9,N
1575889315.3,286046998.4,N
1575889335.1,286047002.6,N
1575889355.9,286047000.9,N
1575889375.7,286047000.5,N
1575889395.5,286047004.7,N
1575889415.4,286047010.7,Y
1575889435.2,286047009.6,P
1575889455.1,286047017.9,P
1575889456.0,286047017.9,N
1575889475.8,286047015.2,N
1575889495.6,286047015.2,N
1575889515.5,286047021.2,Y
1575889535.3,286047010.7,P
1575889555.2,286047009.9,P
1575889575.9,286047013.8,P
1575889595.7,286047007.9,Y
1575889615.6,286046993.7,P
1575889635.4,286046991.3,N
1575889655.2,286046989.4,N
1575889675.1,286046987.3,N
1575889676.0,286046987.3,N
1575889695.8,286046987.2,N
1575889715.7,286046986.5,N
1575889735.5,286046984.5,N
1575889755.3,286046980.5,N
1575889775.2,286046989.3,N
1575889795.0,286046994.8,N
1575889795.9,286046994.8,N
1575889815.8,286046997.7,N
1575889835.6,286046999.1,N
1575889855.5,286047002.1,N
1575889875.3,286046997.4,N
1575889895.1,286046990.9,N
1575889915.9,286046987.9,N
1575889935.7,286046982.0,N
1575889955.5,286046978.5,N
1575889975.4,286046974.7,Y
1575889995.2,286046977.5,P
1575890015.1,286046979.5,P
1575890016.0,286046979.5,P
1575890035.8,286046984.0,N
1575890055.6,286046987.9,N
1575890075.5,286046986.3,N
1575890095.3,286046986.4,N
1575890115.2,286046984.7,Y
1575890135.9,286046997.6,P
1575890155.7,286046997.6,N
1575890175.6,286046997.4,N
1575890195.4,286046995.9,N
1575890215.2,286046993.5,N
1575890235.1,286046993.1,N
1575890236.0,286046993.1,N
1575890255.8,286046991.0,N
1575890275.7,286046993.7,N
1575890295.5,286047001.8,N
1575890315.3,286047004.6,N
1575890335.2,286047009.2,N
1575890355.0,286047007.1,N
1575890355.9,286047007.1,N
1575890375.8,286047007.5,N
1575890395.6,286047010.3,N
1575890415.4,286047011.0,N
1575890435.3,286047010.5,N
1575890455.1,286047008.0,N
1575890475.8,286047009.2,N
1575890495.7,286047005.1,N
1575890515.5,286047003.2,N
1575890535.4,286047004.0,N
1575890555.2,286046996.5,N
1575890575.0,286046992.0,N
1575890575.9,286046992.0,N
1575890595.8,286046993.7,N
1575890615.6,286046999.5,N
1575890635.4,286046994.2,N
1575890655.3,286046994.0,N
1575890675.1,286046991.3,N
1575890695.9,286046990.0,N
1575890715.7,286046993.2,N
1575890735.5,286047000.1,N
1575890755.4,286047004.2,N
1575890775.2,286046999.9,N
1575890795.0,286047002.8,N
1575890796.0,286047002.8,N
1575890815.8,286047001.4,N
1575890835.6,286047002.3,N
1575890855.5,286046997.7,N
1575890875.3,286046994.6,N
1575890895.1,286046993.9,N
1575890915.9,286046992.6,N
1575890935.7,286046989.7,N
1575890955.6,286046986.8,N
1575890975.4,286046986.8,N
1575890995.2,286046990.8,N
1575891015.1,286046990.1,N
1575891016.0,286046990.1,N
1575891035.8,286046992.3,N
1575891055.6,286046991.5,N
1575891075.5,286046996.2,N
1575891095.3,286046997.6,N
1575891115.2,286046997.6,N
1575891135.9,286046996.3,N
1575891155.7,286046995.9,N
1575891175.6,286046994.5,N
1575891195.4,286046989.1,N
1575891215.2,286046989.2,N
1575891235.1,286046989.2,N
1575891236.0,286046989.2,N
1575891255.8,286046990.2,N
1575891275.7,286046991.4,N
1575891295.5,286046990.0,N
1575891315.3,286046991.6,N
1575891335.2,286046991.7,N
1575891355.0,286046994.9,N
1575891355.9,286046994.9,N
1575891375.8,286047001.2,N
1575891395.6,286047001.1,N
1575891415.4,286046997.7,N
1575891435.3,286046991.7,N
1575891455.1,286046992.6,N
1575891475.9,286046989.6,N
1575891495.7,286046988.2,Y
1575891515.5,286046996.4,P
1575891535.4,286046994.4,P
1575891555.2,286046995.0,P
1575891575.0,286047000.7,N
1575891575.9,286047000.7,N
1575891595.8,286046997.4,N
1575891615.6,286047002.1,N
1575891635.5,286047000.4,N
1575891655.3,286047000.3,N
1575891675.2,286047002.2,N
1575891695.9,286047008.4,N
1575891715.7,286047007.3,N
1575891735.6,286047004.0,N
1575891755.4,286047003.9,N
1575891775.2,286047002.6,N
1575891795.1,286046999.9,N
1575891796.0,286046999.9,N
1575891815.8,286047004.2,N
1575891835.7,286047002.5,N
1575891855.5,286047003.2,N
1575891875.3,286047009.0,N
1575891895.2,286047005.9,N
1575891915.0,286047003.8,N
1575891915.9,286047003.8,N
1575891935.8,286047005.4,N
1575891955.6,286047005.8,N
1575891975.4,286047001.5,N
1575891995.3,286046999.8,N
1575892015.1,286046999.6,N
1575892035.8,286046996.8,N
1575892055.7,286047002.2,N
1575892075.5,286047001.4,N
1575892095.4,286047003.2,N
1575892115.2,286047007.1,N
1575892135.0,286047010.6,Y
1575892135.9,286047010.6,P
1575892155.8,286047013.2,P
1575892175.6,286047022.5,P
1575892195.5,286047026.4,Y
1575892215.3,286047018.8,P
1575892235.1,286047019.1,P
1575892255.9,286047018.9,P
1575892275.7,286047024.4,Y
1575892295.6,286047007.9,P
1575892315.4,286047002.5,N
1575892335.2,286046996.8,N
1575892355.1,286046992.7,N
1575892356.0,286046992.7,N
1575892375.8,286046988.6,N
1575892395.6,286046997.8,N
1575892415.5,286047002.4,N
1575892435.3,286047002.1,N
1575892455.2,286046996.9,N
1575892475.0,286046996.7,N
1575892475.9,286046996.7,N
1575892495.8,286047004.2,N
1575892515.6,286046997.2,N
1575892535.5,286046992.8,N
1575892555.3,286046993.2,N
1575892575.1,286046989.1,N
1575892595.9,286046997.0,N
1575892615.7,286046999.6,N
1575892635.5,286046995.5,N
1575892655.4,286046993.9,N
1575892675.2,286046995.0,N
1575892695.1,286046991.7,N
1575892696.0,286046991.7,N
1575892715.8,286046993.8,N
1575892735.6,286046995.2,N
1575892755.5,286046996.5,N
1575892775.3,286046999.8,N
1575892795.2,286047012.1,N
